Location: Bush Observatory
(40.2653°N, 94.3194°W)
Time: 12:11:45
(UTC-05:00)

Daily predictions for brighter satellites

Satellite Brightness Start Highest point End
(mag) Time Altitude Azimuth Time Altitude Azimuth Time Altitude Azimuth
SL-16 R/B 2.9 21:13:52 10° N 21:19:13 40° ENE 21:24:30 10° SE
Cosmos-2242 4.2 21:16:33 10° NNW 21:20:38 45° W 21:24:42 10° SSW
In-Cosmos 22 4.4 21:18:27 10° S 21:23:58 56° E 21:29:37 10° NNE
NOSS 3-4 (A) 3.9 21:18:27 10° NNW 21:25:32 79° NE 21:33:05 10° SE
ARGOS 4.4 21:21:15 10° ESE 21:25:36 26° ENE 21:29:59 10° NNE
NOSS 3-4 (C) 3.9 21:18:33 10° NNW 21:25:38 78° NE 21:33:11 10° SE
Cosmos 676 Rocket 4.3 21:20:40 10° SSW 21:25:54 76° WNW 21:31:09 10° NNE
Tiangong 1 0.7 21:29:08 10° WSW 21:31:57 90° E 21:34:44 10° ENE
SAR-Lupe-4 3.5 21:33:45 10° SSE 21:37:19 77° ENE 21:40:54 10° N
Aureole 2 Rocket 3.9 21:33:26 10° NNW 21:37:19 42° WSW 21:40:58 10° S
Meteor 2-1 Rocket 4.3 21:31:29 10° N 21:37:21 77° E 21:43:03 10° SSE
Cosmos 2219 Rocket 3.7 21:32:22 10° NW 21:37:25 34° WSW 21:42:25 10° SSW
Cosmos 2333 Rocket 3.4 21:34:30 10° NW 21:39:44 40° WSW 21:44:56 10° S
Okean 3 Rocket 3.8 21:38:58 10° S 21:43:20 52° E 21:47:42 10° NNE
Cosmos 2221 2.8 21:40:07 10° N 21:44:25 52° E 21:48:41 10° SSE
Meteor 1-29 3.0 21:41:49 10° N 21:45:15 82° WNW 21:48:41 10° SSW
Cosmos 2208 Rocket 4.5 21:44:40 10° N 21:49:50 49° ENE 21:54:24 13° SE
Envisat 4.0 21:45:05 10° S 21:49:56 46° W 21:54:50 10° NNW
USA 186 4.4 21:50:04 10° WSW 21:50:23 10° W 21:50:41 10° W
NOAA 11 4.3 21:46:14 10° SSE 21:51:32 60° ENE 21:56:53 10° N
RESURS DK-1 4.2 21:53:29 10° N 21:56:30 19° NE 21:59:21 11° E
SAR-Lupe-1 4.3 21:53:12 10° S 21:56:46 70° WSW 22:00:22 10° NNW
Cosmos 1242 Rocket 3.0 21:56:19 10° N 21:59:55 47° ENE 22:02:30 17° SSE
SPOT 1/Viking Rocket 4.5 21:56:35 14° SE 22:00:22 33° ENE 22:04:56 10° N
Cosmos 1140 Rocket 4.3 21:56:47 10° SW 22:01:49 53° WNW 22:06:53 10° N
Cosmos 1766 Rocket 4.1 21:58:38 13° SSE 22:02:04 38° E 22:06:07 10° NNE
USA 32 4.4 21:57:13 10° SSW 22:02:26 69° W 22:07:41 10° N
Cosmos 1570 Rocket 4.0 21:59:06 10° NNW 22:04:26 74° ENE 22:08:43 16° SSE
Meteor 1-21 Rocket 4.3 21:59:14 10° S 22:04:50 62° E 22:10:23 10° NNE
USA 245 3.7 22:03:34 19° SE 22:05:30 39° ENE 22:09:13 10° N
Resurs 01 Rocket 4.4 22:04:36 10° WSW 22:06:36 13° W 22:08:36 10° WNW
Milstar 3 Cent rocket 4.2 22:01:58 10° WSW 22:08:45 36° S 22:18:44 15° SE
Cosmos 2297 Rocket 3.7 22:05:22 10° SW 22:10:39 40° WNW 22:15:59 10° N
Cosmos 2228 Rocket 4.5 22:08:29 10° NNE 22:12:15 25° ENE 22:14:28 17° ESE
Cosmos 1867 3.5 22:11:45 10° SSW 22:17:12 83° ESE 22:22:41 10° NNE
H-2A R/B 4.0 22:17:20 12° E 22:19:18 16° ENE 22:21:57 10° NNE
Cosmos 1340 Rocket 4.4 22:16:18 10° SW 22:19:59 35° WNW 22:23:44 10° N
MetOp-B 4.2 22:17:12 15° SSE 22:21:46 85° WSW 22:27:10 10° NNW
Cosmos 2263 Rocket 3.5 22:21:44 18° ESE 22:22:53 19° E 22:26:41 10° ENE
Cosmos 1300 3.7 22:20:13 10° NNE 22:23:39 30° ENE 22:25:01 24° ESE
Cosmos 1459 Rocket 4.0 22:17:55 10° N 22:24:16 89° WSW 22:29:36 15° S
Cosmos 2100 Rocket 4.1 22:18:04 10° N 22:24:24 83° W 22:30:08 13° S
Cosmos 2061 Rocket 4.0 22:19:00 10° N 22:25:25 84° E 22:30:42 16° S
Cosmos 1626 4.4 22:25:43 11° E 22:25:43 11° E 22:26:45 10° ENE
ATLAS 5 CENTAUR R/B 2.7 22:26:36 10° SW 22:31:08 51° NW 22:36:05 10° NNE
SPOT 5 2.9 22:28:21 21° SSE 22:31:37 88° ENE 22:36:41 10° NNW
Cosmos 1726 2.4 22:28:30 10° N 22:32:06 51° E 22:33:27 32° SE
Cosmos 2084 3.9 22:28:23 10° SW 22:32:18 55° NW 22:36:06 10° NNE
Lacrosse 5 2.6 22:30:03 10° NW 22:34:56 46° NE 22:38:08 20° ESE
Cosmos 2123 Rocket 4.1 22:30:34 18° SSE 22:35:08 60° E 22:41:13 10° NNE
Cosmos 2173 Rocket 4.2 22:31:20 10° NNW 22:37:29 72° W 22:42:45 15° S
Cosmos 468 Rocket 4.0 22:33:57 10° NNW 22:39:04 65° ENE 22:41:44 28° SE
Cosmos 2237 Rocket 4.4 22:35:41 10° WNW 22:39:19 18° W 22:42:57 10° SW
Cosmos 371 Rocket 3.9 22:37:39 10° N 22:42:17 44° ENE 22:44:22 28° ESE
H-2A R/B 2.1 22:41:24 25° SSE 22:44:35 82° ENE 22:50:01 10° N
Nimbus 7 Rocket 4.4 22:38:44 10° NNE 22:44:48 81° ESE 22:50:05 14° SSW
USA 234 3.3 22:38:27 10° NE 22:45:01 82° NW 22:51:33 10° SW
Abrixas rocket 4.1 22:42:36 10° NW 22:45:25 26° NNE 22:47:34 14° ENE
ERS-1 Rocket 4.2 22:41:43 10° SSW 22:46:15 36° W 22:50:53 10° NNW
Cosmos 1603 3.7 22:40:42 10° NNW 22:46:22 72° ENE 22:49:18 29° SE
Atlas Centaur 2 3.4 22:49:06 10° SW 22:49:18 11° SW 22:49:18 11° SW
Cosmos 1818 4.4 22:48:50 10° NW 22:53:56 43° WSW 22:56:55 23° S
Cosmos 1802 Rocket 4.4 22:50:18 10° NNW 22:56:18 59° W 23:00:59 17° SSW
Cosmos 1455 4.1 22:54:52 10° NNE 22:57:31 18° ENE 22:57:48 17° ENE
Cosmos 1725 Rocket 3.9 22:52:46 10° N 22:59:04 85° E 23:02:34 28° S
Cosmos 220 Rocket 3.9 22:57:30 31° S 22:59:32 73° ESE 23:03:57 10° NNE
Landsat 7 3.7 22:59:49 35° SSE 23:01:49 85° ENE 23:06:36 10° NNW
SL-16 R/B 3.7 22:58:22 10° NW 23:03:06 28° WSW 23:07:03 13° SSW
Cosmos 1943 3.6 22:58:05 10° NNW 23:03:35 50° ENE 23:05:59 31° ESE
ARGOS 4.1 23:01:49 17° SSW 23:05:35 42° W 23:10:44 10° NNW
deb Chang Zheng 4 4.0 23:02:23 10° NNE 23:06:33 42° E 23:07:03 40° ESE
Tiangong 1 1.6 23:04:57 10° WNW 23:07:39 46° N 23:07:55 44° NNE
CZ-4B R/B 4.1 23:07:20 10° NNE 23:12:15 38° E 23:13:10 35° ESE
CZ-4 R/B 4.2 23:08:51 10° NNE 23:13:33 46° E 23:14:22 42° SE
Cosmos 2058 2.9 23:15:03 54° SE 23:15:40 61° E 23:19:50 10° NNE
Cosmos 1703 3.6 23:16:14 48° E 23:16:20 48° E 23:20:11 10° NNE
Terra 1.7 23:15:15 44° SSE 23:16:45 84° ENE 23:21:33 10° NNW
Cosmos 1356 3.4 23:18:00 70° E 23:18:00 70° E 23:21:24 10° NNE
DMSP B5D2-2 4.2 23:12:42 10° N 23:17:56 75° WNW 23:21:02 25° SSW
Cosmos 1500 Rocket 3.6 23:22:20 41° SSW 23:23:49 76° W 23:28:18 10° N
Meteor 1-11 4.2 23:22:53 32° S 23:25:43 89° W 23:31:35 10° N
Cosmos 1354 Rocket 4.2 23:26:34 46° SE 23:27:27 52° ESE 23:32:33 10° NNE
ERBS 2.7 23:24:42 10° NW 23:27:57 56° NE 23:27:57 56° NE
Cosmos 2151 3.0 23:30:35 50° SSW 23:31:37 74° W 23:35:56 10° N
Cosmos 332 Rocket 4.5 23:27:04 10° NNW 23:31:46 47° WSW 23:33:15 35° SSW
CARTOSAT-1 3.8 23:32:40 48° SSW 23:33:34 60° W 23:37:51 10° NNW
SME Rocket 3.6 23:34:19 40° E 23:34:38 41° ENE 23:38:44 10° N
RESURS DK-1 3.2 23:30:49 10° NW 23:34:42 38° WSW 23:35:16 36° SW
Cosmos 1814 Rocket 4.5 23:31:33 10° NNW 23:36:45 53° WSW 23:38:24 38° SSW
CZ-2C R/B 4.1 23:33:13 10° NE 23:37:05 21° E 23:37:05 21° E
Spot 4 3.8 23:39:25 56° SE 23:40:22 74° ENE 23:45:14 10° N
Cosmos 1486 Rocket 4.4 23:37:19 24° SW 23:40:25 61° WNW 23:45:41 10° NNE
Meteor 1-27 4.3 23:35:03 10° NNW 23:40:51 74° W 23:42:49 43° S
SL-24 R/B 4.5 23:41:34 64° E 23:41:49 66° ENE 23:45:55 10° N
Cosmos 1805 Rocket 3.9 23:42:51 49° E 23:42:51 49° E 23:46:55 10° NNE
Cosmos 304 Rocket 3.8 23:43:34 10° NNW 23:48:20 62° ENE 23:48:57 56° ESE
Cosmos 1633 Rocket 4.2 23:49:53 30° ENE 23:49:53 30° ENE 23:53:12 10° NNE
Cosmos 841 Rocket 3.6 23:45:02 10° NNW 23:50:14 66° WSW 23:51:18 52° SSW
Cosmos 2233 Rocket 4.3 23:47:27 10° NNW 23:53:32 58° W 23:55:56 36° SSW
Cosmos 1763 Rocket 4.0 23:48:42 10° NNW 23:53:34 46° WSW 23:54:37 40° SW
H-2A R/B 2.7 23:54:28 43° WSW 23:54:57 45° W 23:59:05 10° NNW
